Notices

What's New in latest Release from April 7th, 2021:

- Updated Glossary, including Speed of Maximum Gust, and Total Hourly Precipitation

- Updated national and regional climate services offices contacts and prices information

- Addition of station inventory lists for 1981-2010, 1971-2000, and 1961-1990 Normals.

If you haven't already, please take our survey and provide feedback about our website: https://eccc.sondage-survey.ca/f/LanguageSelection.aspx?s=442ca660-fcf1-47c0-95a9-59707d6fd709

Hourly Data Report for May 21, 2020

MIRAMICHI RCS
NEW BRUNSWICK
Current Station Operator: ECCC - MSC

47°00'34.000" N
65°27'54.000" W
33.00 m
8100989
71744
ACQ

Download Data

Hourly Data (May 2020)
Hourly Data Report for May 21, 2020
TIME
LST
Temp Definition
°C
Dew Point Definition
°C
Rel Hum Definition
%
Precip. Amount Definition
mm

Wind Dir Definition
10's deg

Wind Spd Definition
km/h
Visibility Definition
km
Stn Press Definition
kPa
Hmdx Definition


Wind Chill Definition


Weather Definition


00:00 12.5 3.6 55 LegendMM 24 12   101.85     LegendNANA
01:00 11.7 3.6 58 LegendMM 23 15   101.79     LegendNANA
02:00 11.8 4.1 59 LegendMM 24 16   101.76     LegendNANA
03:00 11.7 4.3 60 LegendMM 24 17   101.72     LegendNANA
04:00 11.3 4.0 61 LegendMM 23 18   101.67     LegendNANA
05:00 10.1 4.0 66 LegendMM 23 14   101.65     LegendNANA
06:00 10.6 4.2 64 LegendMM 23 13   101.63     LegendNANA
07:00 12.6 5.2 61 LegendMM 24 15   101.59     LegendNANA
08:00 16.4 4.8 46 LegendMM 25 21   101.52     LegendNANA
09:00 18.3 4.2 39 LegendMM 26 19   101.49     LegendNANA
10:00 20.6 4.7 35 LegendMM 24 22   101.43     LegendNANA
11:00 21.8 6.0 36 LegendMM 23 20   101.33     LegendNANA
12:00 24.2 9.3 39 LegendMM 23 28   101.23 25   LegendNANA
13:00 26.1 18.8 64 LegendMM 24 27   101.15 33   LegendNANA
14:00 27.0 14.5 46 LegendMM 26 26   101.06 31   LegendNANA
15:00 27.7 13.5 42 LegendMM 25 28   100.95 31   LegendNANA
16:00 28.4 9.2 30 LegendMM 26 27   100.83 29   LegendNANA
17:00 28.6 14.0 41 LegendMM 27 24   100.75 32   LegendNANA
18:00 28.0 14.5 44 LegendMM 27 21   100.67 32   LegendNANA
19:00 26.6 12.3 41 LegendMM 25 19   100.66 29   LegendNANA
20:00 25.2 16.2 57 LegendMM 26 16   100.66 30   LegendNANA
21:00 23.2 13.3 53 LegendMM 25 13   100.67 26   LegendNANA
22:00 21.3 10.0 48 LegendMM 24 15   100.65     LegendNANA
23:00 20.0 4.5 36 LegendMM 23 16   100.59     LegendNANA

Notes on Data Quality.

Legend

  • E = Estimated
  • M = Missing
  • NA = Not Available*
  • [empty] = Indicates an unobserved value
Date modified: